Temp
24 25 24 26 27 29 30 31 31 32 34 33 32 29 24 21 21 21 27 27 27 26 25 25 25 24 23 22 21 20 20 20 20 18 19 19 20 20 20 20 20 20 19 19
26 24 27 28 29 29 29 29 31 33 34 34 33 31 23 22 21 22 22 28 27 27 25 25 25 24 23 22 21 20 20 20 20 18 19 20 20 20 21 20 20 20 19 19
25 27 28 28 28 28 29 29 30 31 33 34 34 32 22 21 21 21 20 28 28 27 26 25 24 24 23 22 21 20 20 19 19 19 19 20 20 21 21 21 21 20 19 19
26 28 28 28 28 29 28 30 30 31 31 30 33 30 30 24 25 21 26 29 28 28 26 26 24 24 24 22 21 21 20 19 19 19 19 20 20 20 21 21 21 20 20 20
26 27 27 27 28 29 28 30 30 30 29 30 31 31 32 31 29 22 20 27 29 28 27 26 25 24 24 23 21 21 20 19 19 20 19 20 20 21 21 22 21 21 20 20
26 27 29 28 29 29 29 29 29 29 29 28 29 31 31 32 28 25 21 23 30 29 28 27 26 25 24 23 22 20 20 20 19 20 20 20 20 21 21 22 22 21 20 20
25 26 27 28 27 28 28 27 25 25 27 27 30 30 31 33 31 27 25 27 30 30 29 28 26 25 24 23 22 21 20 20 20 20 20 20 20 21 21 22 21 21 21 20
24 25 26 28 27 26 27 27 26 24 26 27 30 29 31 33 34 31 27 28 29 28 29 28 27 26 24 24 23 22 21 20 20 20 21 21 20 21 21 21 22 21 22 21
23 24 28 28 28 27 26 27 28 27 29 28 30 31 32 34 34 35 30 26 25 24 30 28 28 26 25 24 23 22 21 21 21 21 21 21 21 21 21 21 21 21 22 22
21 20 25 27 27 27 27 28 26 27 24 25 28 30 31 31 33 34 34 32 25 25 25 29 28 27 26 24 24 23 22 21 21 21 20 21 21 22 22 21 21 21 21 22
20 20 21 24 25 25 25 25 26 27 27 26 26 29 34 33 33 34 34 34 28 27 23 30 29 28 27 25 24 23 23 22 21 20 20 20 21 21 22 21 21 21 21 21
21 20 19 21 25 27 26 25 26 25 24 26 28 29 33 33 35 34 34 34 33 28 26 29 28 29 28 26 25 24 23 22 21 20 20 20 19 20 22 22 21 21 21 21
19 18 18 19 21 24 24 24 25 26 26 25 26 28 32 33 34 34 33 33 33 33 30 30 27 26 28 27 26 25 24 23 22 20 19 19 19 19 20 22 21 21 21 22
15 16 16 17 20 21 22 24 25 25 25 25 27 28 30 29 28 31 32 32 33 33 31 26 27 23 25 27 27 26 25 24 23 21 20 19 19 19 19 20 22 20 20 22
16 14 16 17 18 20 20 21 22 23 24 24 26 27 28 22 22 25 27 31 31 31 32 32 32 30 24 28 27 26 26 25 24 23 21 20 20 19 19 19 21 21 20 21
14 12 14 15 16 17 18 20 21 22 24 25 25 24 26 22 23 24 26 24 27 27 27 27 29 30 27 27 27 27 26 25 25 24 22 21 20 20 19 19 19 20 21 21
12 11 11 12 16 16 16 18 20 21 22 23 22 23 24 24 24 24 24 22 24 26 26 25 26 27 28 25 28 26 26 25 25 24 23 22 21 20 20 19 19 19 20 21
12 10 9 10 12 11 16 20 21 20 21 22 22 23 23 23 24 24 24 23 24 25 24 24 24 24 26 28 27 27 26 25 25 24 24 23 22 21 20 20 20 19 19 20
16 13 10 9 11 13 16 19 17 17 20 22 21 21 21 22 23 24 23 23 23 24 24 23 23 24 24 24 26 26 27 26 25 24 24 23 22 22 21 20 20 20 19 19
14 14 11 11 10 11 16 15 16 17 16 20 16 16 18 18 19 24 23 21 20 20 21 21 21 22 23 23 24 25 26 26 25 25 24 23 23 22 21 20 21 20 20 20
10 11 10 8 11 13 16 14 14 13 15 14 14 12 13 15 16 20 18 19 18 18 19 20 21 21 22 21 22 23 26 26 26 25 24 23 23 22 21 20 20 20 20 20
7 8 10 10 10 10 14 13 13 13 12 12 12 12 10 10 14 16 17 16 16 17 17 18 19 18 19 21 22 23 25 25 25 24 24 23 23 23 21 21 21 20 20 20
7 6 5 7 10 11 9 9 9 9 9 10 11 10 9 8 12 14 15 15 15 15 15 15 16 16 16 18 18 22 23 24 24 24 23 23 23 22 22 21 21 21 20 20
6 4 4 5 10 7 5 6 6 6 7 8 9 9 8 8 10 11 13 13 13 13 13 13 13 13 14 16 17 20 23 23 24 24 24 23 22 22 21 21 21 21 20 20
3 3 4 4 5 3 5 3 2 5 4 5 6 7 9 8 9 10 11 11 11 11 11 11 11 11 12 14 15 17 21 22 23 23 23 22 22 21 21 21 20 20 20 21
4 3 3 4 2 2 2 2 2 3 5 7 7 6 7 8 9 8 10 10 10 10 11 10 10 10 11 12 13 15 18 20 21 21 22 21 21 21 20 21 21 20 21 21
Height
1474 1474 1476 1471 1468 1461 1454 1450 1449 1442 1435 1440 1446 1459 1476 1478 1480 1486 1488 1495 1501 1505 1513 1517 1523 1528 1532 1539 1544 1551 1555 1557 1563 1566 1570 1573 1575 1578 1581 1582 1584 1586 1587 1589
1469 1471 1465 1463 1459 1461 1458 1457 1449 1433 1431 1434 1439 1449 1472 1471 1472 1479 1488 1486 1495 1499 1505 1512 1519 1524 1529 1535 1540 1547 1552 1555 1560 1565 1569 1572 1576 1577 1580 1582 1583 1586 1589 1589
1465 1457 1459 1460 1457 1459 1457 1460 1452 1446 1431 1427 1432 1445 1474 1474 1470 1484 1482 1477 1488 1493 1498 1505 1513 1519 1525 1530 1535 1542 1549 1552 1557 1563 1567 1571 1575 1577 1580 1582 1583 1585 1587 1589
1455 1454 1449 1453 1457 1455 1462 1448 1450 1447 1448 1456 1431 1465 1447 1458 1455 1472 1466 1468 1480 1487 1494 1500 1508 1514 1519 1525 1531 1537 1544 1549 1554 1560 1565 1567 1570 1574 1578 1580 1582 1583 1586 1588
1453 1450 1450 1450 1449 1451 1455 1447 1446 1450 1453 1451 1442 1451 1439 1431 1449 1459 1471 1470 1469 1480 1487 1493 1499 1506 1514 1521 1526 1532 1539 1545 1549 1556 1561 1565 1568 1572 1575 1578 1580 1582 1585 1587
1450 1445 1442 1445 1446 1447 1448 1451 1451 1449 1453 1466 1448 1444 1438 1432 1443 1458 1462 1467 1460 1470 1481 1487 1495 1503 1510 1517 1522 1528 1533 1539 1545 1551 1556 1561 1565 1568 1573 1576 1577 1580 1583 1586
1453 1450 1445 1444 1448 1445 1448 1456 1477 1480 1470 1463 1441 1445 1434 1417 1422 1436 1441 1446 1454 1456 1469 1479 1486 1494 1502 1508 1514 1519 1524 1531 1538 1545 1551 1556 1561 1565 1569 1573 1575 1578 1580 1582
1459 1455 1442 1442 1445 1449 1447 1453 1468 1486 1470 1456 1435 1441 1429 1420 1415 1423 1428 1447 1450 1450 1452 1463 1475 1484 1491 1499 1506 1511 1515 1522 1530 1537 1545 1550 1556 1561 1565 1568 1572 1576 1578 1580
1460 1454 1434 1431 1438 1445 1449 1450 1445 1455 1440 1445 1430 1423 1415 1412 1412 1414 1424 1429 1440 1453 1445 1455 1459 1474 1483 1491 1498 1504 1510 1515 1522 1530 1537 1544 1550 1556 1560 1565 1568 1572 1575 1578
1469 1474 1445 1437 1437 1439 1444 1441 1453 1448 1471 1464 1437 1426 1419 1413 1410 1409 1411 1419 1425 1430 1436 1446 1457 1464 1474 1482 1492 1501 1506 1509 1516 1525 1531 1537 1542 1549 1556 1561 1564 1568 1572 1575
1476 1476 1463 1449 1441 1444 1448 1449 1441 1441 1442 1457 1456 1430 1391 1393 1396 1401 1406 1410 1419 1427 1444 1436 1444 1460 1469 1477 1485 1493 1501 1505 1510 1516 1524 1530 1536 1542 1549 1554 1559 1563 1568 1571
1474 1476 1473 1459 1443 1436 1441 1442 1441 1449 1457 1444 1435 1424 1386 1387 1383 1394 1401 1407 1412 1422 1433 1429 1446 1451 1462 1472 1480 1485 1493 1499 1502 1509 1516 1522 1530 1535 1541 1547 1552 1557 1562 1566
1483 1478 1479 1472 1459 1442 1441 1443 1439 1434 1435 1441 1442 1430 1395 1397 1386 1392 1400 1405 1409 1415 1423 1423 1434 1451 1453 1460 1471 1478 1485 1491 1498 1503 1510 1516 1522 1528 1532 1538 1545 1550 1555 1559
1495 1488 1485 1477 1459 1457 1449 1441 1436 1435 1439 1437 1430 1422 1407 1410 1412 1404 1406 1406 1408 1412 1418 1426 1427 1434 1453 1448 1457 1469 1477 1485 1492 1497 1503 1509 1513 1518 1525 1531 1538 1544 1548 1553
1495 1493 1486 1476 1467 1463 1459 1449 1445 1440 1433 1437 1427 1426 1418 1428 1430 1424 1420 1413 1413 1414 1418 1423 1428 1431 1440 1447 1450 1458 1470 1477 1484 1491 1495 1499 1506 1513 1520 1526 1530 1537 1541 1545
1496 1496 1489 1483 1477 1473 1465 1454 1451 1445 1433 1430 1427 1432 1426 1442 1436 1430 1429 1428 1421 1423 1424 1424 1427 1431 1436 1431 1445 1450 1459 1468 1476 1482 1487 1495 1502 1507 1513 1519 1524 1529 1534 1539
1499 1500 1498 1492 1476 1473 1469 1457 1449 1446 1438 1435 1441 1436 1434 1443 1445 1434 1439 1439 1435 1433 1432 1432 1432 1433 1434 1442 1446 1451 1455 1462 1468 1475 1482 1488 1494 1500 1505 1512 1519 1522 1526 1532
1491 1502 1507 1499 1490 1493 1460 1448 1445 1446 1444 1443 1442 1441 1442 1444 1445 1443 1443 1443 1443 1440 1439 1438 1438 1437 1436 1437 1441 1443 1452 1456 1462 1468 1474 1480 1486 1491 1498 1505 1510 1515 1520 1523
1479 1485 1499 1502 1493 1479 1462 1450 1454 1450 1441 1441 1442 1444 1448 1444 1441 1439 1442 1446 1442 1440 1439 1441 1440 1439 1437 1436 1436 1443 1445 1448 1455 1461 1465 1471 1477 1484 1489 1495 1501 1507 1513 1517
1479 1478 1489 1487 1493 1487 1461 1460 1459 1460 1459 1450 1456 1456 1456 1452 1450 1437 1436 1438 1443 1441 1441 1442 1442 1442 1441 1440 1439 1439 1445 1443 1446 1451 1459 1467 1473 1479 1482 1487 1493 1500 1505 1509
1488 1482 1486 1493 1484 1474 1463 1469 1468 1473 1465 1462 1464 1463 1460 1458 1456 1445 1439 1439 1448 1447 1443 1444 1443 1443 1442 1442 1439 1436 1438 1441 1439 1447 1456 1461 1467 1471 1476 1482 1489 1494 1498 1503
1498 1490 1483 1483 1484 1479 1466 1468 1471 1468 1468 1466 1466 1465 1463 1460 1452 1447 1446 1443 1443 1446 1445 1442 1441 1439 1437 1436 1433 1431 1431 1435 1440 1442 1447 1453 1460 1465 1471 1475 1481 1487 1492 1496
1501 1506 1503 1493 1475 1474 1477 1477 1474 1475 1474 1467 1465 1466 1465 1462 1459 1453 1449 1444 1443 1444 1445 1442 1440 1438 1435 1433 1429 1425 1429 1431 1434 1436 1440 1446 1452 1458 1464 1468 1473 1478 1483 1488
1508 1507 1503 1498 1477 1482 1481 1477 1475 1473 1471 1468 1465 1464 1464 1460 1457 1452 1447 1448 1449 1445 1444 1439 1438 1436 1432 1430 1426 1422 1421 1420 1425 1429 1433 1440 1445 1451 1457 1462 1465 1470 1474 1479
1514 1509 1504 1497 1490 1483 1478 1477 1470 1458 1460 1457 1458 1459 1459 1460 1457 1451 1446 1442 1443 1443 1440 1439 1438 1435 1432 1429 1426 1421 1419 1419 1421 1424 1430 1435 1439 1443 1449 1455 1457 1460 1465 1469
1510 1509 1506 1498 1496 1492 1486 1478 1473 1465 1449 1442 1447 1451 1455 1455 1454 1453 1451 1450 1449 1447 1444 1442 1439 1435 1431 1428 1425 1421 1418 1418 1419 1423 1427 1430 1435 1438 1443 1448 1452 1455 1459 1463
Wind_Speed
21 12 16 19 21 21 21 19 18 17 20 20 21 14 15 19 17 15 19 29 33 38 36 32 30 31 31 30 29 28 26 25 23 18 19 15 11 13 10 12 6 5 5 2
13 20 18 19 21 21 23 21 20 15 19 20 17 15 17 10 6 28 37 31 32 35 41 36 32 32 32 32 31 32 29 25 25 20 21 17 15 15 14 11 10 4 7 6
20 15 22 21 19 20 19 21 19 17 12 20 18 17 19 14 22 24 48 34 33 36 38 39 37 35 33 36 34 33 33 27 27 24 21 19 17 14 15 13 13 7 8 5
18 21 22 20 22 19 20 19 20 20 15 14 14 14 21 25 25 20 20 34 35 35 38 38 38 36 37 37 37 34 36 33 32 26 23 25 23 18 19 19 14 9 11 8
15 20 19 23 16 20 20 19 16 18 18 19 22 16 17 23 21 10 21 29 35 35 39 41 42 42 39 37 38 36 35 37 33 34 27 26 24 20 17 16 18 15 12 13
15 21 16 18 20 17 16 20 18 16 16 16 21 19 15 16 21 21 17 38 32 37 36 40 41 40 38 38 38 37 38 39 38 35 32 30 29 23 18 18 19 19 13 16
16 18 18 18 14 20 19 15 12 15 15 17 21 19 15 16 24 27 26 41 34 39 40 38 42 43 43 43 43 42 42 40 40 38 38 34 32 28 25 21 19 17 18 13
15 13 20 18 20 17 22 20 15 19 15 18 21 21 19 21 27 40 43 33 28 35 46 46 43 45 47 46 47 46 46 44 42 43 42 39 35 33 29 20 25 19 15 21
11 18 20 8 19 17 22 20 22 24 22 17 17 17 25 20 23 21 32 38 24 48 43 46 46 46 46 47 47 48 47 47 44 44 44 45 41 36 35 27 23 25 22 17
10 17 20 18 13 13 18 20 20 16 22 23 19 23 15 21 19 20 20 31 42 37 39 46 42 44 45 47 46 45 45 49 46 41 45 46 46 41 37 32 29 25 24 20
10 13 22 20 17 18 16 17 21 15 16 17 17 16 17 21 23 19 21 26 41 46 30 39 40 40 42 44 46 46 45 44 47 45 42 46 47 46 43 37 34 33 28 25
10 12 16 19 23 15 16 18 22 14 19 16 18 17 12 17 23 18 18 26 24 47 48 26 14 41 41 41 44 46 47 45 45 47 45 44 45 45 46 45 40 39 35 31
11 12 11 17 18 22 15 23 23 22 21 19 16 19 18 13 7 22 20 22 22 22 32 16 26 46 47 46 43 44 46 48 44 44 45 43 44 44 46 46 46 43 39 37
12 13 16 15 15 15 14 20 20 24 16 18 19 19 20 12 21 11 9 12 18 17 24 33 33 55 55 49 48 43 44 44 45 43 44 44 46 47 47 44 44 42 41 41
8 16 19 22 27 20 21 19 15 22 21 21 19 21 15 20 18 22 28 4 11 8 15 23 18 33 37 38 46 45 41 43 42 44 44 45 46 47 45 44 44 43 44 42
9 10 18 20 22 21 23 21 20 22 29 22 23 20 17 23 27 26 23 35 13 19 21 20 11 6 39 46 46 47 46 44 43 44 46 43 43 44 45 44 44 43 43 46
6 5 8 17 18 20 21 24 19 18 18 13 18 20 17 8 14 18 23 27 26 14 17 20 17 13 6 15 26 38 44 43 44 45 44 44 43 45 46 44 44 43 45 44
10 6 1 8 11 13 16 18 20 21 20 19 21 20 21 20 24 19 20 29 28 13 12 13 16 18 14 11 23 40 40 43 42 44 43 44 45 46 45 46 46 46 44 46
16 12 5 4 10 16 17 14 7 12 19 16 14 15 23 28 22 28 21 28 33 21 9 13 14 17 20 20 17 9 33 39 44 42 47 46 47 47 47 47 46 47 45 44
14 13 8 9 8 9 15 10 12 12 10 8 13 15 20 27 14 12 13 4 19 14 9 13 14 17 19 22 24 25 18 35 42 44 44 43 44 44 46 47 46 46 46 46
7 7 14 11 12 12 12 0 10 9 6 12 13 16 24 16 25 14 10 5 11 15 14 14 14 17 18 19 22 31 31 34 39 39 40 42 41 45 45 44 42 43 44 44
5 6 5 9 13 15 15 5 11 11 19 19 18 18 22 28 31 21 9 8 7 9 13 13 11 12 14 21 18 28 35 26 34 36 40 41 43 42 42 42 42 41 42 43
2 4 4 5 4 19 16 20 22 19 21 28 27 22 21 24 25 18 13 10 10 8 11 13 12 13 16 15 10 12 27 30 24 36 38 39 41 43 40 42 44 42 43 43
3 6 3 9 6 22 25 25 23 20 23 27 29 26 22 22 25 18 11 9 8 10 10 12 12 13 14 13 10 8 20 25 29 38 38 38 38 40 43 39 41 44 43 44
4 11 5 5 11 25 11 24 26 30 36 30 28 24 26 18 15 11 11 13 13 12 11 10 10 11 13 12 10 6 13 17 24 34 35 35 36 39 40 41 39 41 41 42
3 2 2 3 16 8 17 21 22 23 37 22 25 28 18 13 14 7 5 3 5 7 8 8 10 9 9 8 6 3 5 15 18 22 29 30 32 34 37 40 35 37 36 37
Wind_Direction
205 213 217 226 231 238 265 273 234 239 231 234 206 163 149 171 212 227 223 179 186 179 184 181 184 179 176 181 186 182 181 195 187 189 177 171 203 170 198 212 158 145 206 216
207 227 227 232 237 232 248 266 274 260 246 219 210 190 160 138 332 255 257 176 192 185 176 184 187 183 180 182 190 186 186 198 202 190 176 180 194 175 180 194 155 185 168 230
227 225 217 238 239 244 232 249 260 270 275 255 224 203 156 189 185 245 251 176 190 186 181 179 185 188 184 185 192 193 188 197 203 188 183 184 193 182 196 194 228 236 190 200
236 234 261 209 239 240 244 243 251 268 269 261 213 252 190 185 183 204 219 174 185 191 186 184 185 190 189 187 193 200 193 197 204 188 195 190 191 200 199 201 214 218 187 196
249 238 233 253 239 231 252 255 256 250 265 267 262 223 244 189 185 153 253 226 186 187 190 189 188 193 192 189 188 199 202 198 207 193 192 194 188 197 206 203 198 213 204 190
273 277 254 244 254 248 250 251 264 262 241 249 249 254 232 216 179 175 168 257 194 185 193 189 192 191 194 192 190 193 205 206 207 198 189 200 188 193 202 198 205 191 210 199
236 246 262 264 258 241 230 242 232 239 241 240 234 243 242 254 177 177 189 216 207 183 186 193 187 189 191 193 193 194 204 210 210 205 195 196 202 189 197 203 200 204 205 218
286 253 213 223 237 246 232 222 230 229 233 239 231 238 230 247 264 191 187 202 205 233 184 186 189 190 191 195 194 194 202 211 212 211 203 202 202 196 199 203 203 205 204 212
279 261 276 284 216 219 247 231 234 255 257 249 249 219 243 240 241 246 173 173 201 249 184 184 184 188 192 193 197 197 202 212 215 212 211 206 212 204 202 201 199 210 207 215
306 307 292 294 220 243 231 254 228 231 250 258 255 249 234 215 230 235 239 187 179 206 247 180 185 186 192 195 198 199 204 212 216 219 217 214 214 216 210 200 206 205 207 205
293 286 282 292 276 217 221 245 257 271 237 253 258 259 259 207 204 208 227 240 180 195 217 184 180 190 192 196 195 200 202 211 214 218 220 219 219 219 217 215 211 210 202 210
279 288 285 269 272 262 247 258 242 246 240 265 250 253 24 341 187 194 216 229 220 191 203 166 186 184 190 193 196 198 202 205 214 216 220 222 217 222 222 217 218 218 213 208
313 263 271 259 272 269 231 234 254 249 250 251 234 246 266 332 213 185 200 237 231 219 178 205 288 232 190 191 196 198 201 205 208 208 211 216 218 216 224 223 218 221 221 221
315 274 275 276 257 341 290 239 251 249 243 243 249 244 243 14 0 25 8 219 239 227 198 190 179 216 225 187 190 198 201 203 205 210 209 212 218 218 219 224 222 214 223 224
253 263 266 273 286 294 285 285 286 257 250 248 244 244 254 24 348 329 360 331 359 305 221 231 247 188 206 185 191 195 202 202 205 206 210 215 217 219 218 216 225 220 215 226
302 283 272 259 271 286 274 264 263 278 242 248 259 285 299 71 311 299 344 350 33 12 7 13 2 1 192 196 194 198 198 202 202 210 210 211 213 217 216 215 216 224 222 224
247 261 281 260 267 282 260 254 245 261 272 272 260 269 292 316 275 320 310 331 328 350 350 351 346 334 356 213 199 204 199 200 204 208 210 210 213 214 218 217 214 216 224 225
211 216 233 273 294 251 261 259 262 251 261 259 265 274 289 290 286 273 281 295 301 307 317 335 330 329 325 305 211 198 199 200 205 209 211 210 210 215 215 215 218 217 219 227
240 205 230 235 264 271 293 246 337 327 242 239 285 308 313 304 280 261 268 262 291 296 278 303 309 314 313 296 276 293 203 206 206 213 212 214 212 212 212 216 219 219 217 222
269 265 212 228 241 266 260 50 4 346 266 285 354 323 324 328 311 277 263 356 345 337 331 318 306 304 299 293 291 269 256 209 212 216 216 212 213 210 212 217 220 220 220 226
304 268 239 238 249 252 269 343 331 259 290 350 347 341 336 332 319 350 30 139 278 319 324 310 299 293 290 291 268 263 242 221 222 221 213 214 216 213 214 214 218 220 220 223
307 314 247 228 244 254 7 186 223 346 334 318 325 324 327 327 324 348 6 16 5 332 337 339 327 317 296 283 284 244 241 231 221 214 213 213 213 216 210 215 219 220 221 222
322 7 309 297 310 329 345 330 318 319 313 303 306 306 309 315 315 323 336 0 350 348 331 338 342 326 302 296 322 243 246 243 235 213 210 211 214 214 210 214 216 218 220 220
295 5 290 326 348 334 320 310 306 308 297 284 281 283 284 300 303 313 328 344 353 350 339 338 336 331 308 296 291 242 224 229 229 208 209 209 210 211 211 216 220 218 218 220
274 307 295 268 300 324 333 329 325 319 302 268 264 263 262 268 290 302 319 341 346 345 348 346 338 334 306 301 314 298 206 191 195 203 203 204 206 210 212 212 215 216 218 220
235 265 315 298 313 296 300 317 327 319 333 247 233 244 252 240 250 275 285 320 319 328 331 329 337 314 309 300 314 343 202 193 186 194 197 204 206 208 209 213 214 217 222 218